Rodrygo Alves

Olheiro - Nautico
25 Nov 2027
Quinta-feira
Processo

Personalidade

Adaptabilidade (7) Ambição (11) Controvérsia (15) Lealdade (8) Pressão (1) Profissionalismo (6) Espírito Esportivo (15) Temperamento (19)

Perfil

Estilo de Treinamento Democrático
Licença Nacional A
Determinação 5
Gestão de Pessoas 11
Motivação 12
Disciplina 5
Satisfação no Trabalho
91%
Fadiga
0%
Função Olheiro
Salário 57.9K p/s
Contrato 14.03.2029

Desempenho

Comportamento Bom
Eficácia do Treinamento
32%
Desenvolvimento do Jogador
55%
Prevenção de Lesões
40%
Implementação Tática
20%

Eventos Recentes

Participou de uma reunião de recrutamento agora
Recomendou um alvo de transferência agora
Recomendou um alvo de transferência agora
Recomendou um alvo de transferência agora
Avaliou um jogador 7d atrás
Avaliou um jogador 7d atrás
Avaliou um jogador 7d atrás
Avaliou um jogador 7d atrás

Monitorando agora

135
Jogador Clube Status Habilidade Confiança Observado Última observação Último voto
Daniel Costa Sporting CP Ativo 98 / 114 40% 3 23.11.2027 -
Matías Canedo Rampla Juniors Ativo 77 / 84 40% 3 23.11.2027 -
Eduardo Felicíssimo Sporting CP Ativo 102 / 148 40% 4 21.11.2027 -
Lucas Camejo River Plate Ativo 82 / 85 40% 2 21.11.2027 -
Hosea Michael Remo Stars Ativo 79 / 91 40% 3 19.11.2027 -
David Damboama El-Kanemi Warriors Ativo 89 / 70 40% 8 19.11.2027 -
Gonçalo Oliveira Benfica Ativo 121 / 111 40% 7 18.11.2027 -
Hervin Goyes Deportivo Pasto Ativo 113 / 100 40% 4 18.11.2027 -
Luis Otávio Colorado Rapids Ativo 117 / 122 40% 3 17.11.2027 -
Marvelous Freedom Ikorodu City Ativo 95 / 85 40% 2 16.11.2027 -
Onuorah Onyedika Kun Khalifat Ativo 65 / 108 40% 6 15.11.2027 -
Ignacio Fernández Boston River Ativo 82 / 93 40% 2 15.11.2027 -
Godwin Oham Warri Wolves Ativo 88 / 75 40% 6 13.11.2027 -
Tiago Gordillo San Miguel Ativo 91 / 103 40% 2 13.11.2027 -
Gift Udoh Ikorodu City Ativo 82 / 96 40% 8 12.11.2027 -
Kauã Moraes Cruzeiro Ativo 134 / 131 40% 3 11.11.2027 -
Olaniyi Saheed Kwara United Ativo 111 / 90 40% 4 09.11.2027 -
Martim Cunha Porto Ativo 120 / 98 40% 4 08.11.2027 -
Ricky Atletico Venezuela Ativo 90 / 105 40% 4 08.11.2027 -
Joel Ezra Enyimba Ativo 96 / 112 40% 5 06.11.2027 -
Daniel Banjaqui Benfica Ativo 124 / 135 40% 2 05.11.2027 -
Mauro Carrizo Atlético Tucumán Ativo 114 / 118 40% 2 01.11.2027 -
João Teixeira Porto Ativo 132 / 132 40% 3 30.10.2027 -
Mads Bomholt Stabaek Ativo 97 / 93 40% 5 29.10.2027 -
Mikkel Hope Haugesund Ativo 112 / 126 40% 5 27.10.2027 -
Jackson Imbiakha Muranga Seal Ativo 61 / 87 40% 3 26.10.2027 -
David Asayure Lokomotivi Ativo 75 / 94 40% 1 26.10.2027 -
Figueiredo Sampaio Correa Ativo 83 / 107 40% 5 25.10.2027 -
Juan Camilo Córdoba Deportivo Pereira Ativo 98 / 103 40% 2 23.10.2027 -
Tiago Freitas Benfica Ativo 106 / 139 40% 1 23.10.2027 -
Mohammed Habib Sarwari Kariobangi Sharks Ativo 55 / 93 40% 2 21.10.2027 -
Junior Machis Atletico Venezuela Ativo 76 / 71 40% 2 16.10.2027 -
Bahia Criciuma Ativo 118 / 119 40% 1 16.10.2027 -
Alejandro Almaraz Nueva Chicago Ativo 100 / 126 40% 3 08.10.2027 -
Mpho Khethang AS Police Ativo 89 / 92 40% 2 27.09.2027 -
Jofrank Istifanus Nasarawa United Ativo 79 / 102 40% 1 23.09.2027 -
Nicolas Sport Recife Ativo 110 / 118 40% 1 18.09.2027 -
Mbekezeli Mbokazi Chicago Fire Ativo 136 / 122 40% 1 13.09.2027 -
André Lucas Sampaio Correa Ativo 80 / 90 40% 1 13.09.2027 -
João Capucho Benfica Ativo 95 / 122 40% 2 12.07.2027 -
Davide Bartesaghi AC Milan Ativo 153 / 139 40% 1 12.07.2027 -
Adam Bakoune Ospitaletto Ativo 106 / 119 40% 2 08.06.2027 -
Cheveyo Tsawa Club Brugge Ativo 113 / 126 40% 1 08.06.2027 -
Pablo Internacional Ativo 96 / 94 51% 1 06.06.2027 -
Yussif Saidu Zaragoza Ativo 136 / 111 40% 3 03.06.2027 -
Andreas Trimmel Red Bull Salzburg Ativo 131 / 131 60% 1 01.06.2027 Aprovar
Amar Memić Casa Pia Ativo 127 / 128 62% 1 01.06.2027 Aprovar
Dion Beljo Standard Liege Ativo 131 / 132 66% 1 01.06.2027 Aprovar
Christos Mouzakitis Hull City Ativo 144 / 141 40% 1 01.06.2027 -
Lewis Morgan SuperSport United Ativo 145 / 140 40% 6 28.05.2027 -
Richard Koné Queens Park Rangers Ativo 107 / 115 40% 2 27.05.2027 -
Ilias Chair Queens Park Rangers Ativo 111 / 134 40% 2 26.05.2027 -
Tom Fellows Southampton Ativo 144 / 127 40% 2 25.05.2027 -
Caleb Yirenkyi Coventry City Ativo 123 / 133 40% 2 23.05.2027 Mais informações
Cian Ashford Cardiff City Ativo 109 / 121 40% 2 23.05.2027 -
Alex Lowry Wycombe Wanderers Ativo 113 / 125 40% 1 22.05.2027 -
Tatsuhiro Sakamoto Coventry City Ativo 135 / 131 40% 1 20.05.2027 -
Ronald Swansea City Ativo 143 / 136 40% 1 20.05.2027 -
Ollie Tanner Cardiff City Ativo 122 / 120 40% 3 17.05.2027 -
Alex Robertson Cardiff City Ativo 137 / 119 40% 1 15.05.2027 -
Ryoya Morishita Blackburn Rovers Ativo 117 / 111 40% 2 13.05.2027 -
Josh Smith Accrington Stanley Ativo 92 / 73 40% 1 13.05.2027 -
Welington Southampton Ativo 118 / 133 40% 1 12.05.2027 -
Ianis Hagi Alanyaspor Ativo 136 / 114 40% 1 12.05.2027 -
Leandro Martins Benfica Ativo 78 / 83 40% 2 09.05.2027 -
Tyreece Campbell Charlton Athletic Ativo 105 / 127 40% 2 09.05.2027 -
Christ Inao Oulaï Fiorentina Ativo 130 / 152 40% 1 09.05.2027 -
Isaiah Jones Luton Town Ativo 140 / 106 40% 2 07.05.2027 -
Callum O'Hare Sheffield United Ativo 149 / 112 40% 1 07.05.2027 -
Daniel Kyerewaa Reading Ativo 100 / 124 40% 1 05.05.2027 -
Stanley Mills Oxford United Ativo 117 / 111 40% 2 04.05.2027 -
Ethan Williams Peterborough United Ativo 122 / 106 40% 1 03.05.2027 -
Jack McGlynn Stoke City Ativo 136 / 119 40% 1 02.05.2027 -
Louie Barry Sheffield Wednesday Ativo 117 / 141 40% 1 02.05.2027 -
Tshepang Moremi Orlando Pirates Ativo 98 / 125 40% 2 01.05.2027 -
Zian Flemming Ipswich Town Ativo 133 / 150 40% 1 30.04.2027 -
Riley Owen Trento Ativo 89 / 104 40% 1 26.04.2027 -
Jan Bürger Gillingham Ativo 114 / 126 40% 1 25.04.2027 -
Santi García Gil Vicente Ativo 118 / 130 40% 2 23.04.2027 -
Samu Vitoria Guimaraes Ativo 142 / 105 40% 3 23.04.2027 -
Pablo Fernández Leiria Ativo 118 / 119 40% 1 22.04.2027 -
Ole Pohlmann Rio Ave Ativo 109 / 137 40% 1 22.04.2027 -
André Silva Tondela Ativo 121 / 119 40% 4 21.04.2027 Observar
Martín Tejón Maritimo Ativo 114 / 125 40% 2 21.04.2027 -
Juninho Pumas UNAM Ativo 142 / 119 40% 2 19.04.2027 -
Naïs Djouahra Arouca Ativo 110 / 119 40% 1 19.04.2027 -
Matías Gómez Granada Ativo 120 / 138 40% 1 18.04.2027 -
Zaïd BafdilI Sporting CP Ativo 104 / 84 40% 1 18.04.2027 -
Joel McGregor Swindon Town Ativo 106 / 117 40% 1 17.04.2027 -
Derensili Sanches Fernandes Huddersfield Town Ativo 128 / 118 40% 2 15.04.2027 -
Simo Maritimo Ativo 133 / 96 40% 3 15.04.2027 -
Francisco Moura Lusitânia Lourosa Ativo 141 / 134 40% 2 14.04.2027 -
Renato Sanches AVS Ativo 117 / 137 40% 2 10.04.2027 -
Luis Quintero Torreense Ativo 112 / 117 40% 4 09.04.2027 -
Manu Pozo Torreense Ativo 126 / 100 40% 2 09.04.2027 -
Nabil Touaizi Alverca Ativo 120 / 113 40% 2 08.04.2027 -
Alfonso Trezza Arouca Ativo 133 / 103 40% 1 06.04.2027 -
Makan Aïko Tondela Ativo 127 / 100 40% 2 04.04.2027 -
Benny Feirense Ativo 115 / 129 40% 1 02.04.2027 -
Lorougnon Gohi Académico de Viseu Ativo 112 / 118 40% 3 01.04.2027 -
Cristian Ferreira Académico de Viseu Ativo 118 / 113 40% 2 26.03.2027 -
Rafik Guitane Estoril Praia Ativo 142 / 128 40% 2 23.03.2027 -
Luís Esteves Atlas Ativo 125 / 131 40% 1 23.03.2027 -
Figueiredo Alverca Ativo 139 / 131 40% 1 21.03.2027 -
Dinis Pinto Moreirense Ativo 117 / 114 40% 1 21.03.2027 -
Emi Rodriguez Leon Ativo 119 / 122 40% 1 20.03.2027 -
Jesús Ricardo Angulo Toluca Ativo 142 / 142 40% 1 19.03.2027 -
Mduduzi Shabalala Kaizer Chiefs Ativo 97 / 96 40% 1 18.03.2027 -
Jordan van der Gaag Leiria Ativo 93 / 125 40% 1 30.11.2026 -
Jordan Holsgrove Estoril Praia Ativo 113 / 147 40% 1 24.11.2026 -
Jalen Blesa Rio Ave Ativo 99 / 109 40% 1 20.11.2026 -
Gustavo Silva Vitoria Guimaraes Ativo 111 / 132 40% 2 16.11.2026 -
Caio Alexandre Bahia Ativo 138 / 127 40% 1 15.11.2026 -
Negueba Mirassol Ativo 122 / 136 40% 1 07.11.2026 -
Rodrigo Ramos Moreirense Ativo 102 / 104 40% 1 06.11.2026 -
Lohann Doucet Vitoria Guimaraes Ativo 115 / 141 40% 1 04.11.2026 -
William Gomes Porto Ativo 139 / 143 40% 2 24.10.2026 -
Jan Virgili Club Brugge Ativo 116 / 154 40% 1 23.10.2026 -
João Abreu Porto Ativo 97 / 82 40% 1 23.10.2026 -
André Oliveira Porto Ativo 86 / 115 40% 1 19.10.2026 -
João Simões Sporting CP Ativo 113 / 136 40% 4 18.10.2026 -
Rayan Lucas Alverca Ativo 102 / 131 40% 1 18.10.2026 -
Lovro Zvonarek Estrela da Amadora Ativo 135 / 128 40% 2 17.10.2026 -
Pedro Bondo Famalicao Ativo 134 / 115 40% 1 17.10.2026 -
Joseph Nduquidi Farense Ativo 115 / 125 40% 1 15.10.2026 -
Othmane Maamma Watford Ativo 119 / 138 40% 1 15.10.2026 -
Mathias De Amorim Famalicao Ativo 134 / 145 40% 1 12.10.2026 -
Martim Fernandes Porto Ativo 144 / 160 40% 3 10.10.2026 -
Bernardes Benfica Ativo 93 / 106 40% 2 09.10.2026 -
Salvador Blopá Casa Pia Ativo 111 / 118 40% 1 11.09.2026 -
Gonçalo Sousa Porto Ativo 112 / 94 40% 1 07.09.2026 -
Bénie Traoré New York City Ativo 117 / 135 40% 1 04.08.2026 -
Jesse Derry Chelsea Ativo 83 / 107 40% 1 02.08.2026 -
Gustaf Lagerbielke Braga Ativo 141 / 154 40% 1 01.08.2026 -
Vitor Carvalho Braga Ativo 144 / 130 40% 1 01.08.2026 -